Time,TemperatureF,DewpointF,PressureIn,WindDirection,WindDirectionDegrees,WindSpeedMPH,WindSpeedGustMPH,Humidity,HourlyPrecipIn,Conditions,Clouds,dailyrainin,SolarRadiationWatts/m^2,SoftwareType,DateUTC
2013-01-24 00:04:00,55.2,52.9,30.27,East,98,0.0,3.0,92,0.00,,,0.00,0.0,meteohub,2013-01-24 06:04:00,
2013-01-24 00:09:00,55.2,53.2,30.27,East,98,0.0,3.0,93,0.00,,,0.00,0.0,meteohub,2013-01-24 06:09:00,
2013-01-24 00:14:00,55.0,53.1,30.27,East,98,0.0,1.0,93,0.00,,,0.00,0.0,meteohub,2013-01-24 06:14:00,
2013-01-24 00:19:00,55.0,53.1,30.26,East,98,0.0,1.0,93,0.00,,,0.00,0.0,meteohub,2013-01-24 06:19:00,
2013-01-24 00:24:00,54.9,52.9,30.26,East,98,0.0,1.0,93,0.00,,,0.00,0.0,meteohub,2013-01-24 06:24:00,
2013-01-24 00:29:00,54.9,52.9,30.26,East,98,0.0,3.0,93,0.00,,,0.00,0.0,meteohub,2013-01-24 06:29:00,
2013-01-24 00:34:00,54.7,52.7,30.26,East,98,0.0,3.0,93,0.00,,,0.00,0.0,meteohub,2013-01-24 06:34:00,
2013-01-24 00:39:00,54.5,52.5,30.26,East,98,0.0,1.0,93,0.00,,,0.00,0.0,meteohub,2013-01-24 06:39:00,
2013-01-24 00:44:00,54.3,52.3,30.26,East,98,1.0,0.0,93,0.00,,,0.00,0.0,meteohub,2013-01-24 06:44:00,
2013-01-24 00:49:00,54.3,52.3,30.26,East,98,0.0,0.0,93,0.00,,,0.00,0.0,meteohub,2013-01-24 06:49:00,
2013-01-24 00:54:00,54.1,52.2,30.26,East,98,0.0,3.0,93,0.00,,,0.00,0.0,meteohub,2013-01-24 06:54:00,
2013-01-24 00:59:00,53.8,52.2,30.26,East,98,0.0,3.0,94,0.00,,,0.00,0.0,meteohub,2013-01-24 06:59:00,
2013-01-24 01:04:00,53.4,51.8,30.26,East,98,0.0,0.0,94,0.00,,,0.00,0.0,meteohub,2013-01-24 07:04:00,
2013-01-24 01:09:00,53.1,51.4,30.26,East,98,0.0,0.0,94,0.00,,,0.00,0.0,meteohub,2013-01-24 07:09:00,
2013-01-24 01:14:00,53.1,51.4,30.26,East,98,0.0,0.0,94,0.00,,,0.00,0.0,meteohub,2013-01-24 07:14:00,
2013-01-24 01:19:00,52.9,51.3,30.26,East,98,0.0,0.0,94,0.00,,,0.00,0.0,meteohub,2013-01-24 07:19:00,
2013-01-24 01:25:00,52.9,51.3,30.26,East,98,0.0,0.0,94,0.00,,,0.00,0.0,meteohub,2013-01-24 07:25:00,
2013-01-24 01:30:00,52.9,51.4,30.26,East,98,0.0,0.0,95,0.00,,,0.00,0.0,meteohub,2013-01-24 07:30:00,
2013-01-24 01:35:00,52.9,51.4,30.26,East,98,0.0,0.0,95,0.00,,,0.00,0.0,meteohub,2013-01-24 07:35:00,
2013-01-24 01:40:00,52.9,51.4,30.26,East,98,0.0,0.0,95,0.00,,,0.00,0.0,meteohub,2013-01-24 07:40:00,
2013-01-24 01:45:00,52.7,51.3,30.26,East,98,0.0,0.0,95,0.00,,,0.00,0.0,meteohub,2013-01-24 07:45:00,
2013-01-24 01:50:00,52.9,51.4,30.26,East,98,0.0,0.0,95,0.00,,,0.00,0.0,meteohub,2013-01-24 07:50:00,
2013-01-24 01:55:00,52.5,51.1,30.26,East,98,0.0,0.0,95,0.00,,,0.00,0.0,meteohub,2013-01-24 07:55:00,
2013-01-24 02:00:00,52.3,50.9,30.26,East,98,0.0,0.0,95,0.00,,,0.00,0.0,meteohub,2013-01-24 08:00:00,
2013-01-24 02:05:00,52.3,50.9,30.26,East,98,0.0,0.0,95,0.00,,,0.00,0.0,meteohub,2013-01-24 08:05:00,
2013-01-24 02:10:00,52.2,50.7,30.26,East,98,0.0,0.0,95,0.00,,,0.00,0.0,meteohub,2013-01-24 08:10:00,
2013-01-24 02:15:00,52.2,50.7,30.26,East,98,0.0,0.0,95,0.00,,,0.00,0.0,meteohub,2013-01-24 08:15:00,
2013-01-24 02:20:00,52.2,51.1,30.26,East,98,0.0,0.0,96,0.00,,,0.00,0.0,meteohub,2013-01-24 08:20:00,
2013-01-24 02:25:00,52.2,51.1,30.26,East,98,0.0,0.0,96,0.00,,,0.00,0.0,meteohub,2013-01-24 08:25:00,
2013-01-24 02:30:00,52.5,51.4,30.26,East,98,0.0,0.0,96,0.00,,,0.00,0.0,meteohub,2013-01-24 08:30:00,
2013-01-24 02:35:00,52.3,51.3,30.26,East,98,0.0,1.0,96,0.00,,,0.00,0.0,meteohub,2013-01-24 08:35:00,
2013-01-24 02:40:00,52.9,51.8,30.25,East,98,0.0,1.0,96,0.00,,,0.00,0.0,meteohub,2013-01-24 08:40:00,
2013-01-24 02:45:00,52.9,51.8,30.25,East,98,0.0,1.0,96,0.00,,,0.00,0.0,meteohub,2013-01-24 08:45:00,
2013-01-24 02:50:00,52.9,51.8,30.25,East,98,0.0,1.0,96,0.00,,,0.00,0.0,meteohub,2013-01-24 08:50:00,
2013-01-24 02:55:00,52.9,51.8,30.25,East,98,0.0,0.0,96,0.00,,,0.00,0.0,meteohub,2013-01-24 08:55:00,
2013-01-24 03:00:00,53.1,52.0,30.25,East,98,0.0,0.0,96,0.00,,,0.00,0.0,meteohub,2013-01-24 09:00:00,
2013-01-24 03:05:00,53.2,52.2,30.25,East,98,0.0,2.0,96,0.00,,,0.00,0.0,meteohub,2013-01-24 09:05:00,
2013-01-24 03:10:00,53.2,52.2,30.25,East,98,0.0,2.0,96,0.00,,,0.00,0.0,meteohub,2013-01-24 09:10:00,
2013-01-24 03:15:00,53.2,52.2,30.25,East,98,0.0,2.0,96,0.00,,,0.00,0.0,meteohub,2013-01-24 09:15:00,
2013-01-24 03:20:00,53.2,52.2,30.25,East,98,0.0,2.0,96,0.00,,,0.00,0.0,meteohub,2013-01-24 09:20:00,
2013-01-24 03:25:00,53.2,52.2,30.25,East,98,0.0,1.0,96,0.00,,,0.00,0.0,meteohub,2013-01-24 09:25:00,
2013-01-24 03:30:00,53.2,52.2,30.25,East,98,0.0,1.0,96,0.00,,,0.00,0.0,meteohub,2013-01-24 09:30:00,
2013-01-24 03:35:00,53.2,52.2,30.25,East,98,0.0,1.0,96,0.00,,,0.00,0.0,meteohub,2013-01-24 09:35:00,
2013-01-24 03:40:00,52.9,51.8,30.25,East,98,0.0,1.0,96,0.00,,,0.00,0.0,meteohub,2013-01-24 09:40:00,
2013-01-24 03:45:00,52.9,51.8,30.25,East,98,0.0,0.0,96,0.00,,,0.00,0.0,meteohub,2013-01-24 09:45:00,
2013-01-24 03:50:00,53.1,52.0,30.25,East,98,0.0,0.0,96,0.00,,,0.00,0.0,meteohub,2013-01-24 09:50:00,
2013-01-24 03:55:00,52.7,51.6,30.25,East,98,0.0,1.0,96,0.00,,,0.00,0.0,meteohub,2013-01-24 09:55:00,
2013-01-24 04:00:00,52.5,51.4,30.25,East,98,0.0,1.0,96,0.00,,,0.00,0.0,meteohub,2013-01-24 10:00:00,
2013-01-24 04:05:00,52.3,51.3,30.25,East,98,0.0,0.0,96,0.00,,,0.00,0.0,meteohub,2013-01-24 10:05:00,
2013-01-24 04:10:00,52.5,51.6,30.25,East,98,0.0,0.0,97,0.00,,,0.00,0.0,meteohub,2013-01-24 10:10:00,
2013-01-24 04:15:00,52.5,51.6,30.25,East,98,0.0,0.0,97,0.00,,,0.00,0.0,meteohub,2013-01-24 10:15:00,
2013-01-24 04:20:00,52.3,51.4,30.26,East,98,0.0,0.0,97,0.00,,,0.00,0.0,meteohub,2013-01-24 10:20:00,
2013-01-24 04:25:00,52.5,51.6,30.26,East,98,0.0,0.0,97,0.00,,,0.00,0.0,meteohub,2013-01-24 10:25:00,
2013-01-24 04:30:00,52.9,52.0,30.26,East,98,0.0,0.0,97,0.00,,,0.00,0.0,meteohub,2013-01-24 10:30:00,
2013-01-24 04:35:00,52.9,52.0,30.26,East,98,0.0,0.0,97,0.00,,,0.00,0.0,meteohub,2013-01-24 10:35:00,
2013-01-24 04:40:00,52.9,52.0,30.26,East,98,0.0,0.0,97,0.00,,,0.00,0.0,meteohub,2013-01-24 10:40:00,
2013-01-24 04:45:00,52.7,51.8,30.26,East,98,0.0,0.0,97,0.00,,,0.00,0.0,meteohub,2013-01-24 10:45:00,
2013-01-24 04:50:00,52.5,51.6,30.27,East,98,0.0,0.0,97,0.00,,,0.00,0.0,meteohub,2013-01-24 10:50:00,
2013-01-24 04:55:00,52.9,52.0,30.27,East,98,0.0,0.0,97,0.00,,,0.00,0.0,meteohub,2013-01-24 10:55:00,
2013-01-24 05:00:00,52.9,52.0,30.27,East,98,0.0,0.0,97,0.00,,,0.00,0.0,meteohub,2013-01-24 11:00:00,
2013-01-24 05:06:00,53.2,52.3,30.27,East,98,0.0,0.0,97,0.00,,,0.00,0.0,meteohub,2013-01-24 11:06:00,
2013-01-24 05:11:00,53.2,52.3,30.27,East,98,0.0,0.0,97,0.00,,,0.00,0.0,meteohub,2013-01-24 11:11:00,
2013-01-24 05:16:00,53.2,52.3,30.27,East,98,0.0,0.0,97,0.00,,,0.00,0.0,meteohub,2013-01-24 11:16:00,
2013-01-24 05:21:00,53.2,52.3,30.27,East,98,0.0,0.0,97,0.00,,,0.00,0.0,meteohub,2013-01-24 11:21:00,
2013-01-24 05:26:00,53.1,52.2,30.27,East,98,0.0,0.0,97,0.00,,,0.00,0.0,meteohub,2013-01-24 11:26:00,
2013-01-24 05:31:00,53.2,52.3,30.27,East,98,0.0,0.0,97,0.00,,,0.00,0.0,meteohub,2013-01-24 11:31:00,
2013-01-24 05:36:00,53.2,52.3,30.27,East,98,0.0,0.0,97,0.00,,,0.00,0.0,meteohub,2013-01-24 11:36:00,
2013-01-24 05:41:00,53.1,52.2,30.27,East,98,0.0,0.0,97,0.00,,,0.00,0.0,meteohub,2013-01-24 11:41:00,
2013-01-24 05:46:00,53.1,52.2,30.27,East,98,0.0,0.0,97,0.00,,,0.00,0.0,meteohub,2013-01-24 11:46:00,
2013-01-24 05:51:00,53.2,52.3,30.27,East,98,0.0,0.0,97,0.00,,,0.00,0.0,meteohub,2013-01-24 11:51:00,
2013-01-24 05:56:00,53.2,52.3,30.28,East,98,0.0,0.0,97,0.00,,,0.00,0.0,meteohub,2013-01-24 11:56:00,
2013-01-24 06:01:00,53.2,52.3,30.28,East,98,0.0,0.0,97,0.00,,,0.00,0.0,meteohub,2013-01-24 12:01:00,
2013-01-24 06:06:00,53.8,52.9,30.28,East,98,0.0,0.0,97,0.00,,,0.00,0.0,meteohub,2013-01-24 12:06:00,
2013-01-24 06:11:00,54.0,53.1,30.28,East,98,0.0,0.0,97,0.00,,,0.00,0.0,meteohub,2013-01-24 12:11:00,
2013-01-24 06:16:00,54.1,53.2,30.27,East,98,0.0,2.0,97,0.00,,,0.00,0.0,meteohub,2013-01-24 12:16:00,
2013-01-24 06:21:00,54.7,53.8,30.27,East,96,0.0,4.0,97,0.00,,,0.00,0.0,meteohub,2013-01-24 12:21:00,
2013-01-24 06:26:00,54.9,54.0,30.27,East,96,0.0,4.0,97,0.00,,,0.00,0.0,meteohub,2013-01-24 12:26:00,
2013-01-24 06:31:00,54.9,54.0,30.27,East,96,0.0,4.0,97,0.00,,,0.00,0.0,meteohub,2013-01-24 12:31:00,
2013-01-24 06:36:00,54.9,54.0,30.27,East,96,0.0,4.0,97,0.00,,,0.00,0.0,meteohub,2013-01-24 12:36:00,
2013-01-24 06:41:00,54.9,54.0,30.27,East,96,0.0,4.0,97,0.00,,,0.00,0.0,meteohub,2013-01-24 12:41:00,
2013-01-24 06:46:00,54.9,54.0,30.27,East,96,0.0,4.0,97,0.00,,,0.00,0.0,meteohub,2013-01-24 12:46:00,
2013-01-24 06:51:00,54.9,54.0,30.27,East,96,0.0,2.0,97,0.00,,,0.00,0.0,meteohub,2013-01-24 12:51:00,
2013-01-24 06:56:00,54.9,54.0,30.27,East,96,0.0,2.0,97,0.00,,,0.00,0.0,meteohub,2013-01-24 12:56:00,
2013-01-24 07:01:00,55.0,54.1,30.28,East,96,0.0,2.0,97,0.00,,,0.00,0.0,meteohub,2013-01-24 13:01:00,
2013-01-24 07:06:00,55.0,54.1,30.28,East,96,0.0,2.0,97,0.00,,,0.00,0.0,meteohub,2013-01-24 13:06:00,
2013-01-24 07:11:00,55.2,54.3,30.28,East,96,0.0,2.0,97,0.00,,,0.00,0.0,meteohub,2013-01-24 13:11:00,
2013-01-24 07:16:00,55.2,54.3,30.28,East,96,0.0,2.0,97,0.00,,,0.00,5.0,meteohub,2013-01-24 13:16:00,
2013-01-24 07:21:00,55.6,54.7,30.28,East,96,0.0,2.0,97,0.00,,,0.00,5.0,meteohub,2013-01-24 13:21:00,
2013-01-24 07:26:00,55.6,54.7,30.28,East,96,0.0,2.0,97,0.00,,,0.00,11.0,meteohub,2013-01-24 13:26:00,
2013-01-24 07:31:00,55.8,54.9,30.29,East,96,0.0,2.0,97,0.00,,,0.00,14.0,meteohub,2013-01-24 13:31:00,
2013-01-24 07:36:00,55.9,55.0,30.29,East,96,0.0,2.0,97,0.00,,,0.00,14.0,meteohub,2013-01-24 13:36:00,
2013-01-24 07:41:00,55.9,55.0,30.29,East,96,0.0,3.0,97,0.00,,,0.00,12.0,meteohub,2013-01-24 13:41:00,
2013-01-24 07:46:00,55.9,55.0,30.29,East,96,0.0,3.0,97,0.00,,,0.00,14.0,meteohub,2013-01-24 13:46:00,
2013-01-24 07:51:00,55.9,55.0,30.29,East,96,0.0,3.0,97,0.00,,,0.00,16.0,meteohub,2013-01-24 13:51:00,
2013-01-24 07:56:00,56.1,55.2,30.29,East,96,0.0,3.0,97,0.00,,,0.00,19.0,meteohub,2013-01-24 13:56:00,
2013-01-24 08:01:00,56.1,55.2,30.29,East,96,0.0,3.0,97,0.00,,,0.00,26.0,meteohub,2013-01-24 14:01:00,
2013-01-24 08:06:00,56.5,55.6,30.29,East,96,0.0,3.0,97,0.00,,,0.00,35.0,meteohub,2013-01-24 14:06:00,
2013-01-24 08:11:00,56.5,55.4,30.29,East,96,0.0,1.0,96,0.00,,,0.00,35.0,meteohub,2013-01-24 14:11:00,
2013-01-24 08:16:00,56.7,55.6,30.30,East,95,0.0,1.0,96,0.00,,,0.00,49.0,meteohub,2013-01-24 14:16:00,
2013-01-24 08:21:00,56.7,55.6,30.30,East,96,0.0,1.0,96,0.00,,,0.00,44.0,meteohub,2013-01-24 14:21:00,
2013-01-24 08:26:00,56.8,55.8,30.30,East,96,0.0,1.0,96,0.00,,,0.00,56.0,meteohub,2013-01-24 14:26:00,
2013-01-24 08:32:00,57.0,55.9,30.30,East,95,0.0,0.0,96,0.00,,,0.00,74.0,meteohub,2013-01-24 14:32:00,
2013-01-24 08:37:00,57.4,56.3,30.30,East,96,0.0,0.0,96,0.00,,,0.00,84.0,meteohub,2013-01-24 14:37:00,
2013-01-24 08:42:00,57.6,56.5,30.30,East,96,0.0,0.0,96,0.00,,,0.00,93.0,meteohub,2013-01-24 14:42:00,
2013-01-24 08:47:00,57.7,56.3,30.30,East,96,0.0,0.0,95,0.00,,,0.00,90.0,meteohub,2013-01-24 14:47:00,
2013-01-24 08:52:00,57.9,56.5,30.30,East,96,0.0,2.0,95,0.00,,,0.00,97.0,meteohub,2013-01-24 14:52:00,
2013-01-24 08:57:00,58.1,56.7,30.30,East,96,0.0,2.0,95,0.00,,,0.00,130.0,meteohub,2013-01-24 14:57:00,
2013-01-24 09:02:00,58.3,56.5,30.30,East,96,0.0,2.0,94,0.00,,,0.00,144.0,meteohub,2013-01-24 15:02:00,
2013-01-24 09:07:00,58.6,56.8,30.30,East,96,0.0,2.0,94,0.00,,,0.00,171.0,meteohub,2013-01-24 15:07:00,
2013-01-24 09:12:00,59.0,57.2,30.30,East,96,0.0,3.0,94,0.00,,,0.00,207.0,meteohub,2013-01-24 15:12:00,
2013-01-24 09:17:00,59.0,57.0,30.30,East,96,0.0,3.0,93,0.00,,,0.00,156.0,meteohub,2013-01-24 15:17:00,
2013-01-24 09:22:00,59.5,57.6,30.30,East,96,0.0,3.0,93,0.00,,,0.00,149.0,meteohub,2013-01-24 15:22:00,
2013-01-24 09:27:00,59.9,57.6,30.30,East,96,0.0,3.0,92,0.00,,,0.00,121.0,meteohub,2013-01-24 15:27:00,
2013-01-24 09:32:00,60.1,57.7,30.31,East,97,0.0,2.0,92,0.00,,,0.00,160.0,meteohub,2013-01-24 15:32:00,
2013-01-24 09:37:00,60.4,58.1,30.31,East,97,0.0,2.0,92,0.00,,,0.00,109.0,meteohub,2013-01-24 15:37:00,
2013-01-24 09:42:00,60.8,58.1,30.31,East,97,0.0,4.0,91,0.00,,,0.00,93.0,meteohub,2013-01-24 15:42:00,
2013-01-24 09:47:00,61.0,58.3,30.31,East,97,0.0,4.0,91,0.00,,,0.00,90.0,meteohub,2013-01-24 15:47:00,
2013-01-24 09:52:00,61.2,58.3,30.31,East,97,0.0,1.0,90,0.00,,,0.00,105.0,meteohub,2013-01-24 15:52:00,
2013-01-24 09:57:00,61.3,58.5,30.31,East,96,0.0,1.0,90,0.00,,,0.00,120.0,meteohub,2013-01-24 15:57:00,
2013-01-24 10:02:00,61.9,59.0,30.31,East,97,0.0,1.0,90,0.00,,,0.00,149.0,meteohub,2013-01-24 16:02:00,
2013-01-24 10:07:00,62.2,59.0,30.31,East,97,0.0,1.0,89,0.00,,,0.00,193.0,meteohub,2013-01-24 16:07:00,
2013-01-24 10:12:00,62.8,59.5,30.31,East,96,0.0,1.0,89,0.00,,,0.00,141.0,meteohub,2013-01-24 16:12:00,
2013-01-24 10:17:00,63.3,59.7,30.31,East,98,0.0,1.0,88,0.00,,,0.00,167.0,meteohub,2013-01-24 16:17:00,
2013-01-24 10:22:00,64.0,60.4,30.31,East,98,0.0,4.0,88,0.00,,,0.00,162.0,meteohub,2013-01-24 16:22:00,
2013-01-24 10:27:00,64.6,60.6,30.30,East,98,0.0,4.0,87,0.00,,,0.00,221.0,meteohub,2013-01-24 16:27:00,
2013-01-24 10:32:00,64.9,60.6,30.31,East,98,0.0,4.0,86,0.00,,,0.00,179.0,meteohub,2013-01-24 16:32:00,
2013-01-24 10:37:00,65.3,61.0,30.31,East,98,0.0,4.0,86,0.00,,,0.00,183.0,meteohub,2013-01-24 16:37:00,
2013-01-24 10:42:00,65.5,60.8,30.31,East,97,0.0,4.0,85,0.00,,,0.00,234.0,meteohub,2013-01-24 16:42:00,
2013-01-24 10:47:00,66.0,61.3,30.30,East,96,0.0,4.0,85,0.00,,,0.00,216.0,meteohub,2013-01-24 16:47:00,
2013-01-24 10:52:00,66.4,61.3,30.30,East,97,0.0,4.0,84,0.00,,,0.00,192.0,meteohub,2013-01-24 16:52:00,
2013-01-24 10:57:00,66.7,61.7,30.30,East,97,0.0,4.0,84,0.00,,,0.00,329.0,meteohub,2013-01-24 16:57:00,
2013-01-24 11:02:00,67.5,62.1,30.30,East,98,2.0,5.0,83,0.00,,,0.00,313.0,meteohub,2013-01-24 17:02:00,
2013-01-24 11:07:00,68.2,62.4,30.30,East,100,2.0,5.0,82,0.00,,,0.00,457.0,meteohub,2013-01-24 17:07:00,
2013-01-24 11:13:00,68.4,62.2,30.29,ESE,108,0.0,5.0,81,0.00,,,0.00,190.0,meteohub,2013-01-24 17:13:00,
2013-01-24 11:18:00,68.2,62.1,30.29,ESE,108,0.0,5.0,81,0.00,,,0.00,199.0,meteohub,2013-01-24 17:18:00,
2013-01-24 11:23:00,68.2,62.1,30.29,SE,138,4.0,6.0,81,0.00,,,0.00,151.0,meteohub,2013-01-24 17:23:00,
2013-01-24 11:28:00,68.2,62.1,30.28,SE,142,0.0,6.0,81,0.00,,,0.00,165.0,meteohub,2013-01-24 17:28:00,
2013-01-24 11:33:00,68.2,62.1,30.28,SSE,150,0.0,7.0,81,0.00,,,0.00,315.0,meteohub,2013-01-24 17:33:00,
2013-01-24 11:38:00,69.3,63.1,30.27,ESE,121,0.0,7.0,81,0.00,,,0.00,752.0,meteohub,2013-01-24 17:38:00,
2013-01-24 11:43:00,69.8,62.2,30.27,ESE,115,0.0,6.0,77,0.00,,,0.00,299.0,meteohub,2013-01-24 17:43:00,
2013-01-24 11:48:00,69.6,62.1,30.27,SSE,161,3.0,6.0,77,0.00,,,0.00,308.0,meteohub,2013-01-24 17:48:00,
2013-01-24 11:53:00,69.6,62.1,30.27,SSE,154,5.0,7.0,77,0.00,,,0.00,174.0,meteohub,2013-01-24 17:53:00,
2013-01-24 11:58:00,69.4,62.2,30.27,ESE,111,3.0,7.0,78,0.00,,,0.00,156.0,meteohub,2013-01-24 17:58:00,
2013-01-24 12:03:00,69.3,62.1,30.27,SSE,161,0.0,7.0,78,0.00,,,0.00,146.0,meteohub,2013-01-24 18:03:00,
2013-01-24 12:08:00,69.4,62.2,30.26,SSE,161,0.0,7.0,78,0.00,,,0.00,134.0,meteohub,2013-01-24 18:08:00,
2013-01-24 12:13:00,69.3,61.7,30.26,SSE,152,5.0,6.0,77,0.00,,,0.00,98.0,meteohub,2013-01-24 18:13:00,
2013-01-24 12:18:00,69.1,61.5,30.25,ESE,121,2.0,6.0,77,0.00,,,0.00,134.0,meteohub,2013-01-24 18:18:00,
2013-01-24 12:23:00,69.1,61.9,30.25,SSE,154,0.0,6.0,78,0.00,,,0.00,160.0,meteohub,2013-01-24 18:23:00,
2013-01-24 12:28:00,69.1,61.9,30.25,ESE,123,2.0,6.0,78,0.00,,,0.00,127.0,meteohub,2013-01-24 18:28:00,
2013-01-24 12:33:00,69.1,61.9,30.25,SE,124,6.0,6.0,78,0.00,,,0.00,142.0,meteohub,2013-01-24 18:33:00,
2013-01-24 12:38:00,69.1,61.9,30.24,ESE,123,0.0,9.0,78,0.00,,,0.00,178.0,meteohub,2013-01-24 18:38:00,
2013-01-24 12:43:00,69.4,62.2,30.24,SE,140,0.0,9.0,78,0.00,,,0.00,202.0,meteohub,2013-01-24 18:43:00,
2013-01-24 12:48:00,69.6,62.1,30.24,SE,133,0.0,9.0,77,0.00,,,0.00,183.0,meteohub,2013-01-24 18:48:00,
2013-01-24 12:53:00,69.6,61.7,30.24,SE,128,0.0,5.0,76,0.00,,,0.00,146.0,meteohub,2013-01-24 18:53:00,
2013-01-24 12:58:00,69.4,61.9,30.23,SE,127,0.0,5.0,77,0.00,,,0.00,118.0,meteohub,2013-01-24 18:58:00,
2013-01-24 13:03:00,69.4,62.2,30.23,ESE,110,2.0,6.0,78,0.00,,,0.00,95.0,meteohub,2013-01-24 19:03:00,
2013-01-24 13:08:00,69.3,62.1,30.22,SE,125,0.0,6.0,78,0.00,,,0.00,98.0,meteohub,2013-01-24 19:08:00,
2013-01-24 13:13:00,69.4,62.2,30.22,East,96,1.0,7.0,78,0.00,,,0.00,258.0,meteohub,2013-01-24 19:13:00,
2013-01-24 13:18:00,70.9,63.0,30.22,ESE,102,0.0,7.0,76,0.00,,,0.00,174.0,meteohub,2013-01-24 19:18:00,
2013-01-24 13:23:00,70.5,62.2,30.22,ESE,110,0.0,3.0,75,0.00,,,0.00,114.0,meteohub,2013-01-24 19:23:00,
2013-01-24 13:28:00,70.3,62.4,30.21,SSE,156,1.0,3.0,76,0.00,,,0.00,90.0,meteohub,2013-01-24 19:28:00,
2013-01-24 13:33:00,70.2,62.2,30.21,SE,136,4.0,4.0,76,0.00,,,0.00,107.0,meteohub,2013-01-24 19:33:00,
2013-01-24 13:38:00,70.3,62.4,30.21,SE,128,0.0,4.0,76,0.00,,,0.00,221.0,meteohub,2013-01-24 19:38:00,
2013-01-24 13:43:00,71.1,63.1,30.20,SE,127,3.0,6.0,76,0.00,,,0.00,236.0,meteohub,2013-01-24 19:43:00,
2013-01-24 13:48:00,71.2,62.6,30.20,SE,135,0.0,6.0,74,0.00,,,0.00,267.0,meteohub,2013-01-24 19:48:00,
2013-01-24 13:53:00,71.4,62.8,30.19,SSE,156,2.0,7.0,74,0.00,,,0.00,148.0,meteohub,2013-01-24 19:53:00,
2013-01-24 13:58:00,71.2,62.6,30.19,ESE,115,1.0,7.0,74,0.00,,,0.00,186.0,meteohub,2013-01-24 19:58:00,
2013-01-24 14:03:00,71.4,62.8,30.19,SSE,158,4.0,6.0,74,0.00,,,0.00,221.0,meteohub,2013-01-24 20:03:00,
2013-01-24 14:08:00,71.6,63.0,30.19,SSE,149,0.0,6.0,74,0.00,,,0.00,162.0,meteohub,2013-01-24 20:08:00,
2013-01-24 14:13:00,71.4,62.8,30.18,East,81,0.0,6.0,74,0.00,,,0.00,190.0,meteohub,2013-01-24 20:13:00,
2013-01-24 14:18:00,72.0,63.1,30.19,SSE,158,2.0,6.0,74,0.00,,,0.00,475.0,meteohub,2013-01-24 20:18:00,
2013-01-24 14:23:00,72.3,63.1,30.19,ESE,109,0.0,10.0,73,0.00,,,0.00,287.0,meteohub,2013-01-24 20:23:00,
2013-01-24 14:28:00,72.7,62.8,30.19,SE,133,4.0,10.0,71,0.00,,,0.00,179.0,meteohub,2013-01-24 20:28:00,
2013-01-24 14:33:00,72.5,63.0,30.19,East,94,0.0,10.0,72,0.00,,,0.00,199.0,meteohub,2013-01-24 20:33:00,
2013-01-24 14:38:00,72.3,62.8,30.19,ESE,110,0.0,10.0,72,0.00,,,0.00,181.0,meteohub,2013-01-24 20:38:00,
2013-01-24 14:44:00,72.3,62.8,30.19,ESE,113,0.0,6.0,72,0.00,,,0.00,162.0,meteohub,2013-01-24 20:44:00,
2013-01-24 14:49:00,72.5,63.0,30.19,ESE,114,2.0,6.0,72,0.00,,,0.00,213.0,meteohub,2013-01-24 20:49:00,
2013-01-24 14:54:00,73.0,63.1,30.19,ESE,122,0.0,7.0,71,0.00,,,0.00,172.0,meteohub,2013-01-24 20:54:00,
2013-01-24 14:59:00,73.0,62.6,30.19,SE,125,0.0,7.0,70,0.00,,,0.00,218.0,meteohub,2013-01-24 20:59:00,
2013-01-24 15:04:00,73.0,63.1,30.19,SE,125,0.0,7.0,71,0.00,,,0.00,153.0,meteohub,2013-01-24 21:04:00,
2013-01-24 15:09:00,72.9,63.0,30.18,ESE,113,0.0,6.0,71,0.00,,,0.00,97.0,meteohub,2013-01-24 21:09:00,
2013-01-24 15:14:00,72.5,62.6,30.18,ESE,122,1.0,3.0,71,0.00,,,0.00,113.0,meteohub,2013-01-24 21:14:00,
2013-01-24 15:19:00,72.3,62.4,30.19,NNE,18,2.0,3.0,71,0.00,,,0.00,104.0,meteohub,2013-01-24 21:19:00,
2013-01-24 15:24:00,72.3,62.4,30.18,NNE,32,0.0,6.0,71,0.00,,,0.00,163.0,meteohub,2013-01-24 21:24:00,
2013-01-24 15:29:00,72.7,62.8,30.18,East,80,0.0,6.0,71,0.00,,,0.00,181.0,meteohub,2013-01-24 21:29:00,
2013-01-24 15:34:00,72.9,62.4,30.18,SE,128,2.0,7.0,70,0.00,,,0.00,142.0,meteohub,2013-01-24 21:34:00,
2013-01-24 15:39:00,72.9,62.4,30.18,SE,130,0.0,7.0,70,0.00,,,0.00,234.0,meteohub,2013-01-24 21:39:00,
2013-01-24 15:44:00,73.0,62.6,30.18,ENE,77,2.0,10.0,70,0.00,,,0.00,299.0,meteohub,2013-01-24 21:44:00,
2013-01-24 15:49:00,73.2,62.8,30.17,SSE,148,4.0,10.0,70,0.00,,,0.00,197.0,meteohub,2013-01-24 21:49:00,
2013-01-24 15:54:00,73.0,62.6,30.17,ESE,107,3.0,10.0,70,0.00,,,0.00,105.0,meteohub,2013-01-24 21:54:00,
2013-01-24 15:59:00,72.3,62.4,30.17,ESE,111,0.0,10.0,71,0.00,,,0.00,104.0,meteohub,2013-01-24 21:59:00,
2013-01-24 16:04:00,72.3,62.8,30.17,SE,140,4.0,9.0,72,0.00,,,0.00,105.0,meteohub,2013-01-24 22:04:00,
2013-01-24 16:09:00,72.3,62.4,30.17,ESE,118,4.0,9.0,71,0.00,,,0.00,142.0,meteohub,2013-01-24 22:09:00,
2013-01-24 16:14:00,72.3,62.4,30.17,ESE,110,5.0,9.0,71,0.00,,,0.00,69.0,meteohub,2013-01-24 22:14:00,
2013-01-24 16:19:00,72.0,62.4,30.17,ESE,117,3.0,9.0,72,0.00,,,0.00,35.0,meteohub,2013-01-24 22:19:00,
2013-01-24 16:24:00,71.4,62.2,30.17,ESE,121,3.0,10.0,73,0.00,,,0.00,69.0,meteohub,2013-01-24 22:24:00,
2013-01-24 16:29:00,71.4,62.2,30.17,ESE,118,0.0,10.0,73,0.00,,,0.00,86.0,meteohub,2013-01-24 22:29:00,
2013-01-24 16:34:00,71.4,62.2,30.17,SE,126,4.0,6.0,73,0.00,,,0.00,67.0,meteohub,2013-01-24 22:34:00,
2013-01-24 16:39:00,71.2,62.1,30.17,SSE,160,3.0,6.0,73,0.00,,,0.00,54.0,meteohub,2013-01-24 22:39:00,
2013-01-24 16:44:00,70.9,62.2,30.17,SE,144,4.0,10.0,74,0.00,,,0.00,44.0,meteohub,2013-01-24 22:44:00,
2013-01-24 16:49:00,70.5,62.2,30.17,SE,133,0.0,10.0,75,0.00,,,0.00,47.0,meteohub,2013-01-24 22:49:00,
2013-01-24 16:54:00,70.3,62.1,30.17,ESE,123,0.0,8.0,75,0.00,,,0.00,40.0,meteohub,2013-01-24 22:54:00,
2013-01-24 16:59:00,70.2,62.2,30.18,ESE,123,0.0,8.0,76,0.00,,,0.00,30.0,meteohub,2013-01-24 22:59:00,
2013-01-24 17:04:00,70.2,62.2,30.17,East,96,0.0,5.0,76,0.00,,,0.00,26.0,meteohub,2013-01-24 23:04:00,
2013-01-24 17:09:00,70.0,62.1,30.18,East,81,0.0,5.0,76,0.00,,,0.00,19.0,meteohub,2013-01-24 23:09:00,
2013-01-24 17:14:00,69.4,61.9,30.18,East,82,0.0,6.0,77,0.00,,,0.00,11.0,meteohub,2013-01-24 23:14:00,
2013-01-24 17:19:00,69.1,61.9,30.19,East,86,2.0,6.0,78,0.00,,,0.00,12.0,meteohub,2013-01-24 23:19:00,
2013-01-24 17:24:00,68.7,61.5,30.19,East,87,0.0,4.0,78,0.00,,,0.00,9.0,meteohub,2013-01-24 23:24:00,
2013-01-24 17:29:00,68.5,61.7,30.19,East,87,0.0,4.0,79,0.00,,,0.00,7.0,meteohub,2013-01-24 23:29:00,
2013-01-24 17:34:00,68.4,61.5,30.19,East,87,0.0,3.0,79,0.00,,,0.00,5.0,meteohub,2013-01-24 23:34:00,
2013-01-24 17:40:00,68.0,61.5,30.19,East,87,0.0,3.0,80,0.00,,,0.00,0.0,meteohub,2013-01-24 23:40:00,
2013-01-24 17:45:00,67.5,61.3,30.19,East,87,0.0,1.0,81,0.00,,,0.00,0.0,meteohub,2013-01-24 23:45:00,
2013-01-24 17:50:00,67.3,61.5,30.19,East,87,0.0,1.0,82,0.00,,,0.00,0.0,meteohub,2013-01-24 23:50:00,
2013-01-24 17:55:00,66.7,61.0,30.19,East,87,0.0,1.0,82,0.00,,,0.00,0.0,meteohub,2013-01-24 23:55:00,
2013-01-24 18:00:00,66.4,61.0,30.19,East,87,0.0,1.0,83,0.00,,,0.00,0.0,meteohub,2013-01-25 00:00:00,
2013-01-24 18:05:00,66.0,61.0,30.19,East,87,0.0,1.0,84,0.00,,,0.00,0.0,meteohub,2013-01-25 00:05:00,
2013-01-24 18:10:00,65.8,60.8,30.19,East,87,0.0,1.0,84,0.00,,,0.00,0.0,meteohub,2013-01-25 00:10:00,
2013-01-24 18:15:00,65.8,61.2,30.19,East,87,0.0,2.0,85,0.00,,,0.00,0.0,meteohub,2013-01-25 00:15:00,
2013-01-24 18:20:00,65.8,61.2,30.19,East,94,4.0,4.0,85,0.00,,,0.00,0.0,meteohub,2013-01-25 00:20:00,
2013-01-24 18:25:00,66.0,61.3,30.19,ESE,111,0.0,2.0,85,0.00,,,0.00,0.0,meteohub,2013-01-25 00:25:00,
2013-01-24 18:30:00,65.8,60.8,30.19,ESE,112,0.0,4.0,84,0.00,,,0.00,0.0,meteohub,2013-01-25 00:30:00,
2013-01-24 18:35:00,65.7,61.0,30.19,ESE,111,0.0,4.0,85,0.00,,,0.00,0.0,meteohub,2013-01-25 00:35:00,
2013-01-24 18:40:00,65.3,60.6,30.19,ESE,111,0.0,4.0,85,0.00,,,0.00,0.0,meteohub,2013-01-25 00:40:00,
2013-01-24 18:45:00,64.8,60.4,30.19,ESE,112,0.0,1.0,86,0.00,,,0.00,0.0,meteohub,2013-01-25 00:45:00,
2013-01-24 18:50:00,64.6,60.6,30.19,ESE,111,0.0,1.0,87,0.00,,,0.00,0.0,meteohub,2013-01-25 00:50:00,
2013-01-24 18:55:00,64.4,60.4,30.19,ESE,112,0.0,0.0,87,0.00,,,0.00,0.0,meteohub,2013-01-25 00:55:00,
2013-01-24 19:00:00,64.2,60.6,30.20,ESE,112,0.0,0.0,88,0.00,,,0.00,0.0,meteohub,2013-01-25 01:00:00,
2013-01-24 19:05:00,64.0,60.4,30.20,ESE,111,0.0,2.0,88,0.00,,,0.00,0.0,meteohub,2013-01-25 01:05:00,
2013-01-24 19:10:00,64.0,60.8,30.19,ESE,112,0.0,2.0,89,0.00,,,0.00,0.0,meteohub,2013-01-25 01:10:00,
2013-01-24 19:15:00,64.0,60.8,30.19,ESE,111,0.0,3.0,89,0.00,,,0.00,0.0,meteohub,2013-01-25 01:15:00,
2013-01-24 19:20:00,63.9,60.6,30.19,ESE,111,0.0,3.0,89,0.00,,,0.00,0.0,meteohub,2013-01-25 01:20:00,
2013-01-24 19:25:00,63.9,60.6,30.19,ESE,111,0.0,2.0,89,0.00,,,0.00,0.0,meteohub,2013-01-25 01:25:00,
2013-01-24 19:30:00,63.7,60.4,30.19,ESE,108,1.0,2.0,89,0.00,,,0.00,0.0,meteohub,2013-01-25 01:30:00,
2013-01-24 19:35:00,63.7,60.6,30.19,ESE,107,0.0,2.0,90,0.00,,,0.00,0.0,meteohub,2013-01-25 01:35:00,
2013-01-24 19:40:00,63.3,60.3,30.19,ESE,107,0.0,2.0,90,0.00,,,0.00,0.0,meteohub,2013-01-25 01:40:00,
2013-01-24 19:45:00,63.1,60.1,30.19,ESE,107,0.0,2.0,90,0.00,,,0.00,0.0,meteohub,2013-01-25 01:45:00,
2013-01-24 19:50:00,63.1,60.4,30.19,ESE,106,0.0,2.0,91,0.00,,,0.00,0.0,meteohub,2013-01-25 01:50:00,
2013-01-24 19:55:00,63.0,60.3,30.19,ESE,103,0.0,3.0,91,0.00,,,0.00,0.0,meteohub,2013-01-25 01:55:00,
2013-01-24 20:00:00,62.8,60.1,30.19,ESE,104,0.0,3.0,91,0.00,,,0.00,0.0,meteohub,2013-01-25 02:00:00,
2013-01-24 20:05:00,62.8,60.1,30.19,ESE,104,0.0,3.0,91,0.00,,,0.00,0.0,meteohub,2013-01-25 02:05:00,
2013-01-24 20:10:00,62.6,60.3,30.19,ESE,113,0.0,3.0,92,0.00,,,0.00,0.0,meteohub,2013-01-25 02:10:00,
2013-01-24 20:15:00,62.4,60.1,30.19,ESE,113,0.0,2.0,92,0.00,,,0.00,0.0,meteohub,2013-01-25 02:15:00,
2013-01-24 20:20:00,62.2,59.9,30.19,ESE,113,0.0,2.0,92,0.00,,,0.00,0.0,meteohub,2013-01-25 02:20:00,
2013-01-24 20:25:00,62.2,59.9,30.19,ESE,113,0.0,3.0,92,0.00,,,0.00,0.0,meteohub,2013-01-25 02:25:00,
2013-01-24 20:30:00,62.1,59.7,30.19,ESE,113,0.0,3.0,92,0.00,,,0.00,0.0,meteohub,2013-01-25 02:30:00,
2013-01-24 20:35:00,61.9,59.9,30.19,ESE,113,0.0,3.0,93,0.00,,,0.00,0.0,meteohub,2013-01-25 02:35:00,
2013-01-24 20:40:00,61.9,59.9,30.19,ESE,113,0.0,3.0,93,0.00,,,0.00,0.0,meteohub,2013-01-25 02:40:00,
2013-01-24 20:45:00,61.9,59.9,30.18,ESE,110,0.0,3.0,93,0.00,,,0.00,0.0,meteohub,2013-01-25 02:45:00,
2013-01-24 20:50:00,61.9,59.9,30.18,ESE,111,0.0,3.0,93,0.00,,,0.00,0.0,meteohub,2013-01-25 02:50:00,
2013-01-24 20:55:00,62.1,60.1,30.19,ESE,108,0.0,3.0,93,0.00,,,0.00,0.0,meteohub,2013-01-25 02:55:00,
2013-01-24 21:00:00,62.1,60.1,30.19,ESE,104,0.0,3.0,93,0.00,,,0.00,0.0,meteohub,2013-01-25 03:00:00,
2013-01-24 21:05:00,62.1,60.1,30.19,ESE,114,0.0,3.0,93,0.00,,,0.00,0.0,meteohub,2013-01-25 03:05:00,
2013-01-24 21:10:00,62.1,60.1,30.19,ESE,113,0.0,3.0,93,0.00,,,0.00,0.0,meteohub,2013-01-25 03:10:00,
2013-01-24 21:15:00,62.1,60.1,30.19,ESE,108,1.0,4.0,93,0.00,,,0.00,0.0,meteohub,2013-01-25 03:15:00,
2013-01-24 21:20:00,62.1,59.7,30.19,ESE,107,1.0,4.0,92,0.00,,,0.00,0.0,meteohub,2013-01-25 03:20:00,
2013-01-24 21:25:00,62.1,60.1,30.19,ESE,115,0.0,3.0,93,0.00,,,0.00,0.0,meteohub,2013-01-25 03:25:00,
2013-01-24 21:30:00,61.9,59.9,30.19,ESE,104,0.0,3.0,93,0.00,,,0.00,0.0,meteohub,2013-01-25 03:30:00,
2013-01-24 21:35:00,61.9,59.9,30.18,ESE,105,2.0,3.0,93,0.00,,,0.00,0.0,meteohub,2013-01-25 03:35:00,
2013-01-24 21:40:00,61.9,59.9,30.19,ESE,112,0.0,3.0,93,0.00,,,0.00,0.0,meteohub,2013-01-25 03:40:00,
2013-01-24 21:45:00,61.7,59.7,30.19,East,90,0.0,6.0,93,0.00,,,0.00,0.0,meteohub,2013-01-25 03:45:00,
2013-01-24 21:50:00,61.5,59.5,30.19,East,88,0.0,6.0,93,0.00,,,0.00,0.0,meteohub,2013-01-25 03:50:00,
2013-01-24 21:55:00,61.5,59.5,30.19,East,91,0.0,4.0,93,0.00,,,0.00,0.0,meteohub,2013-01-25 03:55:00,
2013-01-24 22:00:00,61.3,59.4,30.19,East,92,0.0,4.0,93,0.00,,,0.00,0.0,meteohub,2013-01-25 04:00:00,
2013-01-24 22:05:00,61.2,59.2,30.19,East,92,0.0,3.0,93,0.00,,,0.00,0.0,meteohub,2013-01-25 04:05:00,
2013-01-24 22:10:00,61.2,59.2,30.19,East,92,0.0,3.0,93,0.00,,,0.00,0.0,meteohub,2013-01-25 04:10:00,
2013-01-24 22:15:00,61.2,59.2,30.19,East,96,0.0,2.0,93,0.00,,,0.00,0.0,meteohub,2013-01-25 04:15:00,
2013-01-24 22:20:00,61.0,59.0,30.19,East,96,0.0,2.0,93,0.00,,,0.00,0.0,meteohub,2013-01-25 04:20:00,
2013-01-24 22:25:00,61.0,59.2,30.19,ENE,71,0.0,2.0,94,0.00,,,0.00,0.0,meteohub,2013-01-25 04:25:00,
2013-01-24 22:30:00,60.8,59.0,30.19,ENE,66,0.0,2.0,94,0.00,,,0.00,0.0,meteohub,2013-01-25 04:30:00,
2013-01-24 22:36:00,60.6,58.8,30.19,East,81,1.0,6.0,94,0.00,,,0.00,0.0,meteohub,2013-01-25 04:36:00,
2013-01-24 22:41:00,60.4,58.6,30.19,ENE,76,0.0,6.0,94,0.00,,,0.00,0.0,meteohub,2013-01-25 04:41:00,
2013-01-24 22:46:00,60.4,58.6,30.19,ENE,77,0.0,3.0,94,0.00,,,0.00,0.0,meteohub,2013-01-25 04:46:00,
2013-01-24 22:51:00,60.3,58.5,30.19,NE,48,0.0,3.0,94,0.00,,,0.00,0.0,meteohub,2013-01-25 04:51:00,
2013-01-24 22:56:00,60.3,58.5,30.18,ENE,74,2.0,2.0,94,0.00,,,0.00,0.0,meteohub,2013-01-25 04:56:00,
2013-01-24 23:00:00,60.1,58.3,30.18,ENE,73,1.0,2.0,94,0.00,,,0.00,0.0,meteohub,2013-01-25 05:00:00,
2013-01-24 23:03:00,60.1,58.3,30.18,ENE,72,0.0,2.0,94,0.00,,,0.00,0.0,meteohub,2013-01-25 05:03:00,
2013-01-24 23:04:00,60.1,58.3,30.18,ENE,72,0.0,2.0,94,0.00,,,0.00,0.0,meteohub,2013-01-25 05:04:00,
2013-01-24 23:09:00,59.9,58.1,30.19,ENE,74,0.0,3.0,94,0.00,,,0.00,0.0,meteohub,2013-01-25 05:09:00,
2013-01-24 23:14:00,59.7,57.9,30.19,NE,52,0.0,2.0,94,0.00,,,0.00,0.0,meteohub,2013-01-25 05:14:00,
2013-01-24 23:19:00,59.7,57.9,30.18,NE,52,0.0,2.0,94,0.00,,,0.00,0.0,meteohub,2013-01-25 05:19:00,
2013-01-24 23:24:00,59.5,57.7,30.18,ENE,60,0.0,2.0,94,0.00,,,0.00,0.0,meteohub,2013-01-25 05:24:00,
2013-01-24 23:29:00,59.5,57.7,30.18,NE,47,0.0,2.0,94,0.00,,,0.00,0.0,meteohub,2013-01-25 05:29:00,
2013-01-24 23:34:00,59.5,57.7,30.18,NE,42,0.0,3.0,94,0.00,,,0.00,0.0,meteohub,2013-01-25 05:34:00,
2013-01-24 23:39:00,59.5,57.7,30.18,NE,56,0.0,3.0,94,0.00,,,0.00,0.0,meteohub,2013-01-25 05:39:00,
2013-01-24 23:44:00,59.5,57.7,30.18,ENE,72,0.0,3.0,94,0.00,,,0.00,0.0,meteohub,2013-01-25 05:44:00,
2013-01-24 23:49:00,59.4,57.6,30.18,ENE,75,0.0,3.0,94,0.00,,,0.00,0.0,meteohub,2013-01-25 05:49:00,
2013-01-24 23:54:00,59.4,57.6,30.18,NE,46,0.0,3.0,94,0.00,,,0.00,0.0,meteohub,2013-01-25 05:54:00,
2013-01-24 23:59:00,59.2,57.4,30.18,ENE,67,0.0,3.0,94,0.00,,,0.00,0.0,meteohub,2013-01-25 05:59:00,